map of LSE home
Great Circle Mapper logo
LSE - Airport
Location
City:  La Crosse, Wisconsin, United States
Name:La Crosse Municipal Airport
ICAO / IATA:KLSE / LSE
FAA:LSE

Details
Type:Airport (Part 139 Class I)
Use:Public/Civil
Latitude:4352'45"N (43.879278)
Longitude:9115'24"W (-91.256638)
Datum:WGS 1984
Elevation:655 ft (200 m)
Runways:3
Longest:8742 × 150 ft (2665 × 45.5 m), paved

Time
Time Zone:UTC-6 (DST-5)
Local Time:

Weather
METAR:KLSE 230153Z AUTO 16007KT 10SM FEW075 BKN100 13/03 A3016 RMK AO2 SLP216 T01280028
TAF:KLSE 222330Z 2300/2324 16008KT P6SM BKN100
FM230800 16008KT P6SM VCSH SCT040 BKN080
FM231100 17010KT 5SM -SHRA BKN025
FM231400 17010KT 5SM -SHRA BKN015
FM231700 18007KT P6SM SCT015 BKN050

Related Locations
Nearby:
Farthest:MGV: 10871 mi / 17496 km
Margaret River, WA, AU

Find:

   beyond  
but within

Other Information
Maps:
Delays:
NOTAMs:
Links:
Sources:

  
flag of United States
flag of Wisconsin
  

Airport Diagram

Airport diagram for LSE

Airport diagram PDF

Sectional Chart

Flight Planning
at skyvector.com

Satellite Image

Google Maps Satellite View

 

Copyright © 2004-2014 Karl L. Swartz. All rights reserved.
The Great Circle Mapper name and logo are trademarks of the Great Circle Mapper.
All other trademarks mentioned herein belong to their respective owners.
Please see credits for attibutions and further copyright information.

  Follow gcmap on Facebook Follow gcmap on Twitter

hCard Microformat

Geo Microformat